CAPE
0 0 0 0 0 0 0 0 0 0 0 0 0 0 0 0 0 0 0 56 55 8 347 712 812 586 425 304 181 117 68 51 40 0 0 0 0 0 0 0 0 0 0 0 0 0 0 0 0
0 0 0 0 0 0 0 0 0 23 1 0 0 0 0 0 0 0 95 127 72 27 206 243 798 656 625 446 272 190 103 113 88 25 0 0 0 0 0 0 0 0 0 0 0 0 0 0 0
0 0 0 0 0 0 0 0 1 9 0 0 0 0 0 0 0 0 0 160 37 17 105 95 885 733 730 540 341 238 177 152 125 40 14 0 0 0 0 0 0 0 0 0 7 22 29 23 20
0 0 0 0 0 0 0 8 0 0 0 2 0 2 0 0 0 0 205 137 0 0 3 339 870 786 807 694 504 335 295 245 210 128 87 47 18 37 25 0 0 0 17 38 75 149 182 178 166
0 0 0 0 0 0 0 0 0 0 1 3 0 0 0 4 3 244 237 104 0 0 0 247 964 948 931 826 639 462 384 370 406 414 244 220 196 170 66 70 72 73 95 149 291 406 363 319 362
0 0 0 0 0 0 0 0 0 0 0 2 0 0 0 0 16 291 237 96 0 0 0 67 983 1015 938 859 678 547 548 528 586 606 582 499 485 482 263 207 151 161 301 464 545 390 384 324 273
0 0 0 0 0 0 0 0 0 0 6 5 2 0 2 0 0 116 222 139 34 0 0 33 285 706 1204 981 876 754 684 654 702 724 702 736 752 767 773 655 407 354 554 710 769 543 491 250 189
0 0 0 0 0 0 0 0 0 0 3 0 0 0 0 0 0 2 121 53 79 33 0 28 74 277 430 575 1259 1038 835 834 769 860 882 924 970 1001 968 836 881 662 811 1064 856 727 581 365 268
0 0 0 0 0 0 0 0 0 0 0 0 0 0 0 0 0 0 1 0 57 95 24 137 165 45 225 351 701 1206 1058 1032 938 888 953 850 642 636 628 768 843 896 1174 1380 1133 1086 767 480 312
0 0 0 0 0 0 0 0 0 0 0 0 0 0 1 0 3 1 0 0 0 73 154 261 247 177 136 226 304 696 578 531 568 478 474 562 576 459 577 733 1081 1175 1535 1735 1581 1322 738 597 259
0 0 0 0 0 0 0 0 0 0 0 0 0 0 0 0 0 0 3 0 0 1 180 369 325 265 229 138 242 655 475 420 481 479 439 548 472 460 505 455 523 878 1454 1169 1235 866 704 478 244
0 0 0 0 0 0 0 0 0 0 0 1 0 0 0 1 5 0 0 0 0 0 26 528 445 378 341 236 264 418 476 414 475 501 473 474 477 382 304 306 486 504 986 1184 981 644 447 315 249
0 0 0 0 0 0 0 0 0 0 0 0 0 0 0 0 0 0 0 0 0 0 0 320 541 506 427 366 375 426 452 416 461 539 472 441 413 342 267 304 758 759 635 748 580 251 241 271 258
0 0 0 0 0 0 0 0 0 0 0 0 1 1 0 0 0 0 0 0 0 0 1 1 559 587 551 461 422 473 521 424 387 463 454 443 411 414 462 792 947 771 367 434 320 314 376 313 123
0 0 0 0 0 0 0 0 0 0 0 0 0 0 0 0 0 0 0 0 0 0 0 0 179 720 755 636 529 558 650 583 496 453 492 596 630 576 612 1040 918 469 470 543 400 401 208 136 121
0 0 0 0 0 0 0 0 0 0 0 0 0 0 0 0 0 0 0 0 0 0 0 1 18 361 894 806 708 700 797 785 714 672 686 879 795 739 911 1032 906 565 614 569 552 450 165 154 101
0 0 0 0 0 0 0 0 0 0 0 0 0 0 0 0 0 0 0 0 0 0 0 3 54 164 493 696 718 826 952 969 971 950 1023 1081 1000 1094 1163 1155 469 516 532 510 472 402 337 259 133
0 0 0 0 0 0 0 0 0 0 0 0 0 0 0 0 0 0 0 0 0 0 0 0 286 613 706 711 997 948 1045 1148 1220 1291 1352 1197 1279 1341 1193 491 559 607 580 562 551 452 289 200 117
0 0 0 0 0 0 0 0 0 0 0 0 0 0 0 0 0 0 0 0 0 0 49 85 599 1025 1228 1139 1471 1352 1330 1279 1143 1059 1020 1103 1197 441 408 445 499 539 578 563 440 315 232 140 107
0 0 0 0 0 0 0 0 0 0 0 0 0 0 0 0 0 0 0 0 0 81 212 525 980 1350 1534 1443 1244 1338 1275 1178 1071 995 979 872 556 591 481 552 729 744 720 502 354 271 178 107 27
0 0 0 0 0 0 0 0 0 0 0 0 0 0 0 0 0 0 0 0 4 123 454 943 1402 1651 1682 1671 1491 1305 1207 1158 1146 1120 919 696 540 479 627 653 502 519 436 317 260 238 180 108 26
0 0 0 0 0 0 0 0 0 0 0 0 0 0 0 0 0 0 0 0 51 330 736 1412 1583 1799 1777 1708 1543 1370 1316 1244 1103 765 389 331 607 548 490 500 369 346 312 319 134 112 121 113 60
0 0 0 0 0 0 0 0 0 0 0 0 0 0 0 0 0 0 0 0 161 589 824 1536 1823 1827 1772 1594 1507 1459 1263 760 283 287 320 428 441 433 526 429 269 228 99 69 141 124 131 124 101
0 0 0 0 0 0 0 0 0 0 0 0 0 0 0 0 0 0 0 169 468 635 1000 1365 1621 1680 1574 1344 1143 656 472 382 339 358 448 542 542 502 382 331 259 153 87 39 25 7 46 73 84
0 0 0 0 0 0 0 0 0 0 0 0 0 0 0 0 0 93 188 343 557 926 1207 1341 1290 1209 1151 1017 571 428 433 308 276 320 368 373 319 337 345 349 242 63 49 2 44 160 98 79 92
0 0 0 0 0 0 0 0 0 0 0 0 0 0 0 0 0 131 240 416 699 991 1130 1164 1103 908 475 423 309 247 215 308 332 323 291 361 302 136 352 266 15 17 107 134 75 57 35 88 83
0 0 0 0 0 0 0 0 0 0 0 0 0 0 0 27 172 267 348 514 731 814 832 833 782 636 380 348 347 342 258 354 373 296 266 214 279 281 33 15 4 102 199 192 30 42 49 73 74
0 0 0 0 0 0 0 0 0 0 0 0 0 0 37 217 337 373 426 632 687 694 638 698 509 404 313 245 228 258 358 339 263 220 144 227 58 0 7 8 126 230 181 121 73 65 61 54 17
4 0 0 0 0 0 0 0 0 0 0 0 0 0 204 311 377 446 527 626 641 576 705 555 337 329 235 166 197 162 311 278 231 89 132 66 17 32 23 260 287 115 112 190 141 78 65 26 0
0 0 0 0 0 0 0 0 0 0 0 0 0 116 302 387 459 445 528 592 530 608 644 364 291 306 221 108 141 147 186 280 96 102 32 13 28 9 197 305 184 157 110 22 2 23 14 18 9
CIN
0 0 0 0 0 0 0 0 0 0 0 0 0 0 0 0 0 0 0 -427 -317 -425 -719 -565 -498 -492 -492 -488 -494 -488 -500 -498 -486 0 0 0 0 0 0 0 0 0 0 0 0 0 0 0 0
0 0 0 0 0 0 0 0 0 -98 -39 0 0 0 0 0 0 0 -421 -637 -228 -647 -784 -719 -509 -489 -464 -474 -481 -479 -490 -464 -445 -499 0 0 0 0 0 0 0 0 0 0 0 0 0 0 0
0 0 0 0 0 0 0 0 -26 -63 -7 0 0 0 0 0 0 0 0 -454 -698 -916 -830 -786 -520 -503 -461 -458 -467 -473 -467 -444 -430 -487 -340 0 0 0 0 0 0 0 0 0 -77 -92 -123 -85 -82
0 0 0 0 0 0 0 -70 -1 0 -0 -2 0 -18 0 0 0 0 -560 -389 -17 -11 -266 -733 -562 -514 -476 -457 -464 -468 -448 -424 -408 -423 -408 -430 -457 -411 -411 0 0 0 -214 -164 -102 -67 -47 -7 -15
0 0 0 0 0 0 -21 0 0 0 -41 -116 0 0 0 -36 -60 -437 -548 -361 0 0 0 -778 -571 -537 -494 -468 -477 -489 -473 -432 -395 -350 -374 -366 -352 -333 -392 -351 -300 -263 -200 -113 -44 -10 -4 -2 -0
0 0 0 0 0 0 0 0 0 -5 0 -28 0 0 0 0 -257 -362 -485 -488 0 0 0 -900 -574 -537 -521 -504 -511 -508 -492 -457 -391 -334 -311 -299 -276 -241 -273 -274 -271 -222 -121 -58 -25 -31 -14 -14 -12
0 0 0 0 0 0 0 0 0 -0 -20 -13 -16 0 -3 0 -18 -280 -375 -432 -575 0 0 -912 -722 -593 -498 -502 -485 -471 -454 -440 -397 -343 -297 -257 -212 -183 -153 -142 -165 -155 -72 -18 -7 -33 -23 -60 -83
0 0 0 0 0 0 0 0 -0 0 -0 0 -0 0 0 0 0 -56 -195 -266 -441 -571 0 -853 -809 -704 -642 -630 -441 -434 -433 -396 -368 -310 -290 -233 -181 -154 -124 -116 -76 -81 -35 -8 -14 -16 -24 -47 -66
0 0 0 0 0 0 0 0 0 0 0 0 0 0 0 0 0 0 -21 0 -241 -365 -469 -706 -751 -784 -708 -715 -580 -410 -391 -363 -337 -295 -262 -270 -286 -254 -216 -151 -86 -31 -2 0 -6 -1 -11 -31 -53
0 0 0 0 0 0 0 0 0 0 0 0 0 0 -1 0 -25 -18 -5 0 -6 -284 -517 -545 -699 -740 -768 -709 -673 -499 -507 -498 -454 -446 -409 -362 -333 -326 -243 -161 -46 -22 -1 0 0 -1 -22 -15 -89
0 0 0 0 0 0 0 0 0 0 0 0 0 0 0 0 0 -7 -3 0 0 -16 -431 -505 -575 -670 -705 -700 -694 -530 -567 -546 -510 -478 -450 -382 -381 -333 -272 -264 -200 -76 -18 -17 -15 -29 -34 -53 -89
0 0 0 0 0 0 0 0 0 0 0 -26 -3 0 0 -45 -69 0 0 0 0 0 -316 -499 -562 -623 -678 -673 -697 -627 -602 -582 -522 -494 -455 -410 -387 -387 -373 -345 -134 -117 -65 -31 -27 -56 -79 -88 -71
0 0 0 0 0 0 0 0 0 0 0 0 0 0 -11 0 0 0 0 0 0 0 -7 -524 -507 -575 -616 -572 -624 -640 -640 -595 -520 -462 -460 -445 -421 -423 -403 -337 -70 -76 -99 -59 -52 -113 -61 -65 -42
0 0 0 0 0 0 0 0 0 0 0 0 -11 -11 0 0 0 0 0 0 0 0 -4 -202 -508 -515 -568 -582 -542 -637 -584 -580 -544 -487 -470 -449 -428 -379 -305 -109 -53 -56 -140 -86 -70 -40 -30 -27 -32
0 0 0 0 0 0 0 0 0 0 0 0 0 0 0 0 0 0 0 0 0 0 0 0 -492 -457 -501 -516 -430 -492 -469 -524 -500 -490 -453 -130 -141 -305 -227 -73 -43 -70 -59 -30 -30 -0 -26 -9 -9
0 0 0 0 0 0 0 0 0 0 0 0 0 0 0 0 0 0 0 0 0 0 0 -10 -431 -522 -433 -373 -351 -438 -466 -334 -323 -331 -326 -138 -115 -106 -113 -53 -20 -66 -35 -15 -1 -0 -3 -2 -25
0 0 0 0 0 0 0 0 0 0 0 0 0 0 0 0 0 0 0 0 0 0 -37 -65 -650 -661 -506 -398 -336 -491 -421 -325 -271 -194 -117 -104 -87 -50 -32 -5 -72 -55 -30 -5 -3 -5 -3 -7 -29
0 0 0 0 0 0 0 0 0 0 0 0 0 0 0 0 0 0 0 0 0 0 0 0 -646 -475 -659 -422 -480 -413 -325 -243 -182 -113 -57 -51 -27 -20 -7 -89 -50 -41 -13 -7 -6 -10 -27 -30 -33
0 0 0 0 0 0 0 0 0 0 0 0 0 0 0 0 0 0 0 0 0 0 -349 -379 -570 -489 -512 -320 -273 -204 -220 -162 -118 -98 -60 -53 -4 -42 -39 -48 -46 -28 -16 -12 -20 -31 -30 -38 -24
0 0 0 0 0 0 0 0 0 0 0 0 0 0 0 0 0 0 0 0 0 -268 -275 -490 -514 -478 -424 -344 -288 -177 -138 -94 -58 -39 -23 -10 -28 -17 -44 -40 -27 -16 -18 -24 -34 -35 -26 -14 -29
0 0 0 0 0 0 0 0 0 0 0 0 0 0 0 0 0 0 0 0 -162 -344 -440 -395 -404 -370 -328 -259 -170 -150 -130 -78 -51 -23 -14 -28 -28 -71 -38 -29 -17 -34 -32 -34 -26 -18 -18 -19 -51
0 0 0 0 0 0 0 0 0 0 0 0 0 0 0 0 0 0 0 0 -403 -434 -424 -392 -341 -280 -244 -220 -158 -159 -118 -89 -76 -86 -105 -139 -41 -24 -15 -9 -47 -41 -35 -22 -31 -22 -21 -22 -38
0 0 0 0 0 0 0 0 0 0 0 0 0 0 0 0 0 0 0 -47 -421 -450 -386 -362 -268 -219 -184 -185 -151 -114 -103 -156 -229 -167 -143 -91 -52 -21 -11 -7 -61 -50 -47 -37 -15 -11 -17 -20 -22
0 0 0 0 0 0 0 0 0 0 0 0 0 0 0 0 0 0 0 -648 -482 -511 -468 -328 -244 -182 -183 -190 -165 -226 -237 -211 -168 -148 -90 -28 -18 -12 -30 -43 -43 -41 -34 -37 -29 -10 -21 -24 -14
0 0 0 0 0 0 0 0 0 0 0 0 0 0 0 0 0 -646 -592 -533 -576 -487 -359 -269 -242 -220 -217 -189 -240 -238 -192 -169 -177 -123 -66 -36 -27 -58 -48 -31 -20 -44 -40 -11 -22 -14 -20 -16 -16
0 0 0 0 0 0 0 0 0 0 0 0 0 0 0 0 0 -568 -509 -548 -500 -391 -315 -267 -247 -274 -322 -286 -262 -257 -215 -148 -99 -69 -62 -47 -47 -67 -35 -23 -71 -88 -17 -8 -29 -14 -26 -21 -18
0 0 0 0 0 0 0 0 0 0 0 0 0 0 0 -490 -517 -452 -425 -470 -423 -365 -339 -328 -304 -290 -305 -296 -239 -171 -144 -101 -60 -56 -37 -36 -37 -34 -64 -97 -77 -23 -11 -14 -53 -48 -28 -36 -20
0 0 0 0 0 0 0 0 0 0 0 0 0 0 -407 -394 -353 -364 -431 -406 -378 -370 -368 -305 -302 -312 -301 -274 -247 -172 -90 -58 -71 -50 -60 -47 -58 0 -132 -106 -22 -8 -16 -24 -48 -34 -27 -28 -54
-0 0 0 0 0 0 0 0 0 0 0 0 0 0 -423 -364 -303 -334 -404 -375 -354 -372 -297 -290 -314 -302 -283 -255 -190 -172 -84 -65 -43 -72 -43 -50 -55 -37 -87 -14 -18 -21 -28 -23 -34 -30 -24 -14 0
-2 0 0 0 0 0 0 0 0 0 0 0 0 -509 -354 -280 -276 -331 -388 -364 -363 -320 -272 -313 -301 -251 -223 -228 -190 -159 -127 -53 -81 -57 -66 -47 -30 -57 -17 -16 -21 -14 -24 -65 -34 -35 -51 -50 -0
Wind_Speed
nan nan nan nan nan nan nan nan nan nan nan nan nan nan nan nan nan nan nan nan nan nan 45 49 49 55 53 48 44 46 nan nan nan nan nan nan nan nan nan nan nan nan nan nan nan nan nan nan nan
nan nan nan nan nan nan nan nan nan nan nan nan nan nan nan nan nan nan nan 29 nan nan 42 44 53 56 56 51 47 45 45 34 nan nan nan nan nan nan nan nan nan nan nan nan nan nan nan nan nan
nan nan nan nan nan nan nan nan nan nan nan nan nan nan nan nan nan nan nan 34 nan nan 39 nan 56 54 59 54 51 48 46 37 33 nan nan nan nan nan nan nan nan nan nan nan nan nan nan nan nan
nan nan nan nan nan nan nan nan nan nan nan nan nan nan nan nan nan nan 34 40 nan nan nan 54 63 58 58 55 53 49 47 39 36 36 nan nan nan nan nan nan nan nan nan nan nan 20 21 20 18
nan nan nan nan nan nan nan nan nan nan nan nan nan nan nan nan nan 40 44 44 nan nan nan 52 63 57 57 60 55 53 51 43 36 36 37 37 37 37 nan nan nan nan nan 29 25 19 19 18 16
nan nan nan nan nan nan nan nan nan nan nan nan nan nan nan nan nan 39 46 nan nan nan nan nan 54 58 58 60 56 55 55 51 39 37 38 38 39 38 38 36 36 36 35 32 25 19 19 18 15
nan nan nan nan nan nan nan nan nan nan nan nan nan nan nan nan nan 43 44 44 nan nan nan nan 52 58 58 58 59 55 52 52 45 45 41 40 39 39 38 34 35 34 34 30 29 26 22 18 17
nan nan nan nan nan nan nan nan nan nan nan nan nan nan nan nan nan nan 48 nan nan nan nan nan nan 60 62 51 58 57 51 49 47 47 44 41 40 39 37 34 32 36 35 30 33 30 22 20 20
nan nan nan nan nan nan nan nan nan nan nan nan nan nan nan nan nan nan nan nan nan nan nan 58 60 nan 62 52 48 50 52 50 52 46 42 39 34 35 35 32 33 37 37 33 32 30 25 21 20
nan nan nan nan nan nan nan nan nan nan nan nan nan nan nan nan nan nan nan nan nan nan 60 62 62 66 65 49 44 45 44 41 44 40 36 35 34 34 34 34 35 35 36 37 34 30 28 23 28
nan nan nan nan nan nan nan nan nan nan nan nan nan nan nan nan nan nan nan nan nan nan 59 63 64 67 54 43 39 36 40 41 40 40 37 35 33 33 33 32 34 38 37 36 36 29 28 29 29
nan nan nan nan nan nan nan nan nan nan nan nan nan nan nan nan nan nan nan nan nan nan nan 69 65 59 48 40 39 36 40 44 42 39 38 34 31 32 34 33 38 39 40 41 38 32 29 27 27
nan nan nan nan nan nan nan nan nan nan nan nan nan nan nan nan nan nan nan nan nan nan nan 62 59 49 40 43 40 38 43 43 42 38 35 33 30 31 34 37 40 40 45 43 39 34 32 28 24
nan nan nan nan nan nan nan nan nan nan nan nan nan nan nan nan nan nan nan nan nan nan nan nan 56 44 44 43 42 41 44 46 41 35 32 33 30 32 36 39 41 43 47 45 42 37 34 31 29
nan nan nan nan nan nan nan nan nan nan nan nan nan nan nan nan nan nan nan nan nan nan nan nan 49 42 40 40 38 42 43 46 37 32 33 32 31 33 37 41 44 46 47 48 44 41 38 35 31
nan nan nan nan nan nan nan nan nan nan nan nan nan nan nan nan nan nan nan nan nan nan nan nan nan 48 41 38 36 41 43 41 34 33 32 32 31 32 40 44 45 47 49 47 45 43 40 33 32
nan nan nan nan nan nan nan nan nan nan nan nan nan nan nan nan nan nan nan nan nan nan nan nan nan 49 50 39 40 42 43 35 34 34 30 32 32 37 44 45 45 48 47 46 46 42 39 36 32
nan nan nan nan nan nan nan nan nan nan nan nan nan nan nan nan nan nan nan nan nan nan nan nan 39 48 54 44 46 41 40 35 36 33 31 35 37 40 44 45 45 46 46 45 42 40 36 35 32
nan nan nan nan nan nan nan nan nan nan nan nan nan nan nan nan nan nan nan nan nan nan nan nan 48 42 38 35 40 38 36 35 34 31 35 36 39 42 40 41 43 44 44 42 37 32 28 25 24
nan nan nan nan nan nan nan nan nan nan nan nan nan nan nan nan nan nan nan nan nan nan 37 44 47 43 34 33 32 36 34 32 31 31 35 42 43 40 40 41 40 40 37 35 32 33 30 25 nan
nan nan nan nan nan nan nan nan nan nan nan nan nan nan nan nan nan nan nan nan nan 37 41 46 50 42 35 32 34 34 33 27 29 31 36 36 37 37 39 38 37 36 32 27 27 25 26 23 nan
nan nan nan nan nan nan nan nan nan nan nan nan nan nan nan nan nan nan nan nan nan 38 41 40 33 32 28 31 32 33 27 27 29 34 34 32 35 35 33 35 32 29 24 21 19 20 19 17 nan
nan nan nan nan nan nan nan nan nan nan nan nan nan nan nan nan nan nan nan nan 35 37 30 31 30 25 23 29 32 28 26 28 31 31 34 32 29 29 31 28 23 18 nan nan 17 16 16 13 11
nan nan nan nan nan nan nan nan nan nan nan nan nan nan nan nan nan nan nan 38 38 27 27 31 28 21 25 29 26 27 31 32 32 31 30 29 24 26 25 20 17 14 nan nan nan nan nan nan nan
nan nan nan nan nan nan nan nan nan nan nan nan nan nan nan nan nan nan 33 34 32 28 27 27 24 21 25 26 25 27 31 32 31 30 28 24 23 20 19 14 12 nan nan nan nan 17 nan nan nan
nan nan nan nan nan nan nan nan nan nan nan nan nan nan nan nan nan 26 30 34 33 28 24 20 20 19 24 24 25 28 29 25 25 25 24 22 21 17 13 10 nan nan 10 13 nan nan nan nan nan
nan nan nan nan nan nan nan nan nan nan nan nan nan nan nan nan 20 27 29 22 20 18 15 19 20 19 23 23 26 26 25 26 27 29 23 21 15 14 nan nan nan 8 10 16 nan nan nan nan nan
nan nan nan nan nan nan nan nan nan nan nan nan nan nan nan 15 21 24 22 18 15 16 18 17 18 21 21 24 24 22 25 26 27 24 21 16 nan nan nan nan 10 6 8 13 nan nan nan nan nan
nan nan nan nan nan nan nan nan nan nan nan nan nan nan 12 18 19 20 25 22 19 21 17 15 20 21 21 21 20 22 23 25 24 nan 15 nan nan nan nan 7 9 4 7 11 15 nan nan nan nan
nan nan nan nan nan nan nan nan nan nan nan nan nan 9 9 17 20 23 27 24 21 19 16 18 19 20 18 17 20 23 24 22 nan 15 nan nan nan nan 8 5 6 4 7 nan nan nan nan nan nan
Wind_Direction
nan nan nan nan nan nan nan nan nan nan nan nan nan nan nan nan nan nan nan nan nan nan 324 335 340 341 341 342 337 335 nan nan nan nan nan nan nan nan nan nan nan nan nan nan nan nan nan nan nan
nan nan nan nan nan nan nan nan nan nan nan nan nan nan nan nan nan nan nan 305 nan nan 325 334 338 340 341 342 340 335 338 333 nan nan nan nan nan nan nan nan nan nan nan nan nan nan nan nan nan
nan nan nan nan nan nan nan nan nan nan nan nan nan nan nan nan nan nan nan 308 nan nan 319 nan 338 342 342 341 341 339 341 335 334 nan nan nan nan nan nan nan nan nan nan nan nan nan nan nan nan
nan nan nan nan nan nan nan nan nan nan nan nan nan nan nan nan nan nan 298 308 nan nan nan 331 337 344 342 343 342 341 344 338 335 337 nan nan nan nan nan nan nan nan nan nan nan 324 317 312 296
nan nan nan nan nan nan nan nan nan nan nan nan nan nan nan nan nan 306 307 314 nan nan nan 328 339 341 342 344 344 342 344 344 338 337 337 337 334 339 nan nan nan nan nan 344 342 334 320 308 303
nan nan nan nan nan nan nan nan nan nan nan nan nan nan nan nan nan 309 309 nan nan nan nan nan 342 342 343 344 347 347 345 346 342 339 338 339 339 339 343 345 345 343 346 346 341 335 330 319 307
nan nan nan nan nan nan nan nan nan nan nan nan nan nan nan nan nan 305 306 309 nan nan nan nan 337 342 344 343 343 346 346 343 343 342 340 338 340 337 343 338 346 348 344 344 341 341 330 323 317
nan nan nan nan nan nan nan nan nan nan nan nan nan nan nan nan nan nan 294 nan nan nan nan nan nan 331 334 340 342 341 345 343 339 342 337 336 337 335 340 336 345 349 344 343 338 335 328 320 311
nan nan nan nan nan nan nan nan nan nan nan nan nan nan nan nan nan nan nan nan nan nan nan 325 327 nan 328 336 335 338 340 340 336 338 334 329 320 325 334 332 343 353 349 342 343 335 323 321 315
nan nan nan nan nan nan nan nan nan nan nan nan nan nan nan nan nan nan nan nan nan nan 325 320 322 325 322 327 329 332 326 328 322 323 321 315 314 319 329 334 345 347 347 343 345 340 329 318 302
nan nan nan nan nan nan nan nan nan nan nan nan nan nan nan nan nan nan nan nan nan nan 315 316 314 318 323 328 323 318 317 320 317 318 312 309 309 318 324 319 320 322 338 326 331 326 315 312 304
nan nan nan nan nan nan nan nan nan nan nan nan nan nan nan nan nan nan nan nan nan nan nan 307 313 315 323 316 319 317 318 317 313 310 310 304 305 315 319 314 316 312 318 320 319 316 312 315 308
nan nan nan nan nan nan nan nan nan nan nan nan nan nan nan nan nan nan nan nan nan nan nan 307 306 315 316 315 316 314 316 317 309 305 307 303 306 313 313 315 309 315 312 315 316 316 315 315 308
nan nan nan nan nan nan nan nan nan nan nan nan nan nan nan nan nan nan nan nan nan nan nan nan 302 313 309 314 316 310 311 315 305 304 306 311 308 311 313 307 306 307 309 315 318 317 313 308 301
nan nan nan nan nan nan nan nan nan nan nan nan nan nan nan nan nan nan nan nan nan nan nan nan 307 307 309 313 312 302 307 305 302 302 306 311 313 315 307 300 304 307 310 311 311 310 307 302 297
nan nan nan nan nan nan nan nan nan nan nan nan nan nan nan nan nan nan nan nan nan nan nan nan nan 314 315 306 295 296 300 297 297 299 300 313 318 307 297 297 298 303 305 308 312 310 308 303 297
nan nan nan nan nan nan nan nan nan nan nan nan nan nan nan nan nan nan nan nan nan nan nan nan nan 305 310 296 290 292 294 290 287 297 302 312 311 302 296 294 296 305 307 310 308 309 305 300 292
nan nan nan nan nan nan nan nan nan nan nan nan nan nan nan nan nan nan nan nan nan nan nan nan 297 291 288 285 278 279 278 279 287 298 303 314 306 301 299 300 304 306 307 308 308 310 306 301 291
nan nan nan nan nan nan nan nan nan nan nan nan nan nan nan nan nan nan nan nan nan nan nan nan 296 294 295 294 280 281 278 281 289 297 305 310 310 311 309 307 307 309 311 311 312 309 310 304 297
nan nan nan nan nan nan nan nan nan nan nan nan nan nan nan nan nan nan nan nan nan nan 291 288 288 290 285 279 275 273 280 285 296 306 314 317 313 309 307 308 312 310 307 310 311 307 300 295 nan
nan nan nan nan nan nan nan nan nan nan nan nan nan nan nan nan nan nan nan nan nan 295 302 298 295 290 274 274 268 267 274 284 296 303 304 305 306 307 310 313 311 313 316 313 312 314 313 303 nan
nan nan nan nan nan nan nan nan nan nan nan nan nan nan nan nan nan nan nan nan nan 294 291 292 290 276 271 273 268 280 288 299 307 306 299 301 305 309 311 312 316 316 315 324 326 329 327 320 nan
nan nan nan nan nan nan nan nan nan nan nan nan nan nan nan nan nan nan nan nan 294 295 287 277 277 275 273 268 277 285 294 302 302 296 297 299 301 309 311 316 316 332 nan nan 342 334 335 331 324
nan nan nan nan nan nan nan nan nan nan nan nan nan nan nan nan nan nan nan 297 295 284 273 279 275 268 267 273 285 296 303 301 295 293 297 299 305 313 315 328 334 339 nan nan nan nan nan nan nan
nan nan nan nan nan nan nan nan nan nan nan nan nan nan nan nan nan nan 297 295 290 279 277 273 268 264 276 279 289 298 295 297 300 304 303 307 310 316 329 330 333 nan nan nan nan 343 nan nan nan
nan nan nan nan nan nan nan nan nan nan nan nan nan nan nan nan nan 288 288 286 285 271 271 264 267 271 279 288 294 293 293 300 302 306 310 311 317 318 320 337 nan nan 360 1 nan nan nan nan nan
nan nan nan nan nan nan nan nan nan nan nan nan nan nan nan nan 282 286 292 294 281 267 262 269 273 275 288 296 295 292 299 299 306 309 312 311 314 316 nan nan nan 346 8 0 nan nan nan nan nan
nan nan nan nan nan nan nan nan nan nan nan nan nan nan nan 282 290 292 289 290 266 259 262 261 275 288 296 295 292 300 303 303 309 312 313 313 nan nan nan nan 324 343 8 358 nan nan nan nan nan
nan nan nan nan nan nan nan nan nan nan nan nan nan nan 311 305 295 298 292 277 266 267 273 275 281 289 293 293 299 301 301 305 307 nan 315 nan nan nan nan 322 313 348 338 335 349 nan nan nan nan
nan nan nan nan nan nan nan nan nan nan nan nan nan 269 292 297 297 294 294 280 276 282 269 279 281 290 298 303 301 301 306 308 nan 315 nan nan nan nan 301 324 310 326 319 nan nan nan nan nan nan